sat.trackr.live / text

‹ back to catalog

STARLINK-34930

NORAD 65688 · 2025-212N

PAYLOAD ACTIVE UNKNOWN

§ Identity

Operator
Country
US
Launch date
2025-09-21
Launch site
AFETR
Launch vehicle
Mass (kg)
RCS (m²)

Purposes: comms

External: N2YO · Heavens-Above · Gunter

§ Orbital elements

Epoch: 2026-05-24T23:15:34.357824Z

Period
94.11 min
Inclination
53.1620°
Eccentricity
0.0000837
Mean motion
15.30197584 rev/d
Perigee alt
474.6 km
Apogee alt
475.8 km
Semi-major
6,853.4 km
B*
6.1977e-4
RAAN
351.2642°
Arg perigee
63.4129°
Mean anomaly
296.6957°
Rev number
3,892

§ Raw data

STARLINK-349301 65688U 25212N   26144.96914766  .00018040  00000+0  61977-3 0  99952 65688  53.1620 351.2642 0000837  63.4129 296.6957 15.30197584 38927

JSON: /api/v1/satellites/65688 · /tle

For live sub-satellite position, see the globe view (requires WebGL).

§ Visibility from observer

Set your observer location to see the next 7 days of passes ≥ 10°. The values pass through the URL so the page stays shareable.

No JS? Fill the form by hand. The geolocation button needs JavaScript.